Location: Unspecified
(22.6800°N, 112.2000°E)
Time: 21:29:52
(UTC+08:00)

Hubble Space Telescope - Pass Details

Date: 03 July 2021
Orbit: 535 x 539 km, 28.5° (Epoch: 30 July)

Event Time Altitude Azimuth Distance (km) Brightness Sun altitude
Exits shadow 04:10:30 11° 154° (SSE) 1,696 3.2 -20.6°
Maximum altitude 04:10:47 11° 149° (SSE) 1,692 3.2 -20.5°
Drops below altitude 10° 04:12:08 10° 130° (SE) 1,779 3.6 -20.3°
Sets 04:15:53 0° 96° (E) 2,672 5.1 -19.6°
